[[{"header":{"parameterUnit":"m.s-1","parameterCategory":1,"la1":30.2991,"la2":30.254,"lo1":-89.0895,"lo2":-89.0444,"dy":0.0017,"dx":0.0017,"nx":28,"ny":28,"refTime":"2025-03-17T09:00:00:Z","depth":0,"parameterNumber":2,"parameterNumberName":"U-component_of_WINDS"},"data":[0,0,0,0,0,0,0,0,0,0,0,0,0,0,0,0,0,0,0,0,0,0,0,0,0,0,0,0,0,0,0,0,0,0,0,0,0,0,0,0,0,0,0,0,0,0,0,0,0,0,0,0,0,0,0,0,0,0,1.6115,1.6116,0,1.6183,1.6183,1.6184,1.6215,1.6215,1.6215,1.6214,1.6285,1.6286,1.6288,0,0,0,0,0,0,0,0,0,0,0,0,0,1.6013,1.6015,1.6115,1.6116,1.6117,1.6183,1.6183,1.6184,1.6215,1.6215,1.6215,1.6214,1.6284,1.6286,1.6288,0,0,0,0,0,0,0,0,0,0,0,0,0,1.6067,1.6016,1.6115,1.614,1.6143,1.6182,1.6183,1.6185,1.6215,1.6215,1.6214,1.6214,1.6283,1.6286,1.6289,1.6309,0,0,1.6298,1.6299,0,0,0,0,0,0,0,0,1.6064,1.6071,1.6135,1.6138,1.6141,1.619,1.6173,1.6226,1.6215,1.6187,1.6214,1.6214,1.6253,1.6259,1.6272,1.6312,1.6315,1.6298,1.63,1.6301,1.6302,0,0,0,0,0,0,0,1.606,1.6068,1.6142,1.6136,1.614,1.6148,1.6155,1.6184,1.622,1.619,1.6192,1.62,1.6255,1.6269,1.6273,1.6316,1.6298,1.63,1.6302,1.6303,1.6379,1.6379,0,0,0,0,0,0,1.6052,1.6064,1.614,1.6144,1.6101,1.615,1.6158,1.6175,1.622,1.6227,1.62,1.6201,1.6264,1.627,1.6276,1.6303,1.6301,1.6304,1.6305,1.6378,1.6379,1.6379,0,0,0,0,0,0,1.605,1.6058,1.6137,1.6105,1.6115,1.6152,1.617,1.6176,1.619,1.6227,1.6234,1.6207,1.6264,1.6272,1.6301,1.6306,1.6305,1.6308,1.6378,1.6378,1.6379,1.6358,0,0,0,0,0,0,1.6047,1.6057,1.6065,1.6105,1.6117,1.616,1.617,1.6177,1.6195,1.6197,1.6236,1.6242,1.6264,1.6296,1.6304,1.631,1.631,1.6378,1.6378,1.6379,1.6358,1.6357,1.6357,0,0,0,0,0,1.6043,1.6056,1.6065,1.6074,1.6127,1.616,1.6167,1.6192,1.6195,1.6203,1.6228,1.6241,1.6305,1.6299,1.6308,1.6315,1.6378,1.6378,1.6379,1.6358,1.6357,1.6357,0,0,0,0,0,0,1.6016,1.6062,1.6072,1.6099,1.6125,1.6165,1.6176,1.619,1.6217,1.6217,1.6248,1.6256,1.6283,1.6302,1.6295,1.6338,1.6342,1.6345,1.6324,1.6323,1.6323,1.6317,1.6312,0,0,0,0,0,1.6013,1.6036,1.6075,1.6095,1.6107,1.6139,1.6155,1.6172,1.6201,1.6212,1.6238,1.6266,1.6293,1.6309,1.6335,1.6361,1.6371,1.6371,1.637,1.6369,1.6371,1.6387,1.6387,1.6381,1.6381,1.6381,0,0,1.6008,1.6036,1.6048,1.609,1.6112,1.6136,1.6149,1.6172,1.619,1.6216,1.6245,1.6265,1.6298,1.6326,1.6339,1.6343,1.6375,1.637,1.6369,1.6371,1.6387,1.6388,1.6389,1.6381,1.6381,1.6381,0,0,1.6009,1.6032,1.6052,1.6074,1.6108,1.613,1.6134,1.6173,1.6187,1.6217,1.6237,1.6259,1.6303,1.6326,1.6343,1.6355,1.6369,1.6363,1.6359,1.6374,1.6375,1.6375,1.638,1.6381,1.6364,1.6364,1.6364,0,1.5998,1.6033,1.606,1.6083,1.6101,1.6125,1.6146,1.6166,1.6207,1.622,1.6223,1.628,1.6304,1.6337,1.634,1.6354,1.636,1.6358,1.6372,1.6373,1.6374,1.6379,1.6381,1.6363,1.6364,1.6364,1.6364,0,1.6018,1.6042,1.6054,1.6093,1.6113,1.6134,1.6164,1.6181,1.6197,1.6218,1.6249,1.6278,1.6311,1.6321,1.6336,1.6357,1.6358,1.6367,1.6372,1.6374,1.6379,1.638,1.6362,1.6362,1.6363,1.6363,0,0,1.6004,1.6058,1.6062,1.608,1.612,1.614,1.6163,1.6195,1.6209,1.6237,1.6257,1.6295,1.6303,1.6323,1.6342,1.6355,1.6363,1.6362,1.6363,1.6361,1.6389,1.6382,1.6383,1.6373,1.6373,1.6373,1.6386,0,1.6011,1.6052,1.6078,1.6109,1.6133,1.6157,1.6177,1.6204,1.6225,1.6249,1.6272,1.6298,1.6307,1.6319,1.6334,1.6359,1.6369,1.6358,1.6392,1.6393,1.6383,1.6386,1.6379,1.6389,1.6388,1.6388,1.6389,0,1.6024,1.6052,1.6086,1.6124,1.6135,1.6152,1.6184,1.6206,1.6238,1.6252,1.6275,1.6294,1.632,1.6324,1.636,1.6353,1.6368,1.6383,1.6384,1.6388,1.6391,1.639,1.6393,1.6394,1.6392,1.6392,1.6391,0,1.601,1.6056,1.6082,1.6097,1.6143,1.6155,1.6174,1.6206,1.6224,1.6252,1.6265,1.6296,1.6313,1.6337,1.6364,1.6364,1.6398,1.6404,1.6411,1.641,1.6417,1.6416,1.6422,1.6427,1.6427,1.6427,1.6427,0,1.6015,1.6035,1.6077,1.6093,1.6117,1.6146,1.6168,1.619,1.6218,1.624,1.6263,1.6282,1.6317,1.6341,1.6363,1.639,1.6398,1.641,1.6416,1.6408,1.6407,1.6418,1.6418,1.6427,1.6427,1.6427,1.6427,0,1.6004,1.6032,1.6063,1.6103,1.6114,1.613,1.6165,1.6182,1.6205,1.6232,1.624,1.6275,1.6305,1.6335,1.6375,1.6389,1.6416,1.6424,1.6405,1.6408,1.6414,1.6413,1.6428,1.6432,1.6434,1.6434,1.6434,0,1.6005,1.6021,1.6063,1.6079,1.6098,1.6124,1.6143,1.6172,1.6191,1.6229,1.6242,1.6274,1.63,1.6347,1.6377,1.6408,1.6416,1.6419,1.6421,1.6413,1.6416,1.6415,1.6417,1.6418,1.6418,1.6418,1.6418,0,1.6004,1.6018,1.6043,1.6075,1.6097,1.6123,1.615,1.6162,1.6197,1.6217,1.6248,1.6269,1.631,1.6341,1.6376,1.6397,1.6413,1.6417,1.6421,1.6413,1.6401,1.6408,1.6403,1.6416,1.6417,1.6417,1.6417,1.6417,1.5999,1.6014,1.6047,1.6076,1.6099,1.6124,1.6142,1.6168,1.6194,1.6229,1.6246,1.6277,1.631,1.6358,1.6379,1.6404,1.6408,1.6413,1.6414,1.6415,1.6413,1.6398,1.641,1.6411,1.6411,1.6411,1.6411,0,1.5999,1.6022,1.6048,1.6085,1.6108,1.6121,1.6152,1.617,1.6197,1.6226,1.6252,1.6288,1.6319,1.6352,1.6385,1.6399,1.6407,1.6406,1.6405,1.641,1.6408,1.6401,1.6399,1.6399,1.6399,1.6399,1.6399,1.6399,1.6002,1.6029,1.6047,1.6087,1.6109,1.614,1.6156,1.618,1.6203,1.6242,1.6268,1.6289,1.632,1.6355,1.6384,1.6393,1.6404,1.6401,1.6412,1.6409,1.641,1.6411,1.6405,1.6403,1.6403,1.6413,1.6413,1.6413]},{"header":{"parameterUnit":"m.s-1","parameterCategory":1,"la1":30.2991,"la2":30.254,"lo1":-89.0895,"lo2":-89.0444,"dy":0.0017,"dx":0.0017,"nx":28,"ny":28,"refTime":"2025-03-17T09:00:00:Z","depth":0,"parameterNumber":3,"parameterNumberName":"V-component_of_WINDS"},"data":[0,0,0,0,0,0,0,0,0,0,0,0,0,0,0,0,0,0,0,0,0,0,0,0,0,0,0,0,0,0,0,0,0,0,0,0,0,0,0,0,0,0,0,0,0,0,0,0,0,0,0,0,0,0,0,0,0,0,-3.2104,-3.2106,0,-3.2256,-3.2258,-3.226,-3.2334,-3.2334,-3.2334,-3.2334,-3.2488,-3.2492,-3.2496,0,0,0,0,0,0,0,0,0,0,0,0,0,-3.1878,-3.1882,-3.2104,-3.2106,-3.2108,-3.2256,-3.2258,-3.226,-3.2334,-3.2334,-3.2334,-3.2334,-3.2486,-3.2491,-3.2496,0,0,0,0,0,0,0,0,0,0,0,0,0,-3.1998,-3.1883,-3.2104,-3.2163,-3.2169,-3.2256,-3.2258,-3.2261,-3.2334,-3.2334,-3.2334,-3.2334,-3.2485,-3.2491,-3.2497,-3.2536,0,0,-3.2516,-3.2519,0,0,0,0,0,0,0,0,-3.1991,-3.2006,-3.2152,-3.2159,-3.2166,-3.2276,-3.2235,-3.2353,-3.2334,-3.2271,-3.2334,-3.2334,-3.2417,-3.2429,-3.2458,-3.2543,-3.255,-3.2516,-3.252,-3.2523,-3.2525,0,0,0,0,0,0,0,-3.1983,-3.2,-3.2164,-3.2154,-3.2163,-3.2182,-3.2199,-3.2258,-3.2343,-3.2277,-3.2282,-3.23,-3.2421,-3.2451,-3.2462,-3.2552,-3.2516,-3.2522,-3.2526,-3.2528,-3.2682,-3.2682,0,0,0,0,0,0,-3.1965,-3.1993,-3.216,-3.2169,-3.2077,-3.2186,-3.2205,-3.2241,-3.2342,-3.2358,-3.2299,-3.2302,-3.2441,-3.2454,-3.2467,-3.2523,-3.2523,-3.2529,-3.2532,-3.2681,-3.2682,-3.2682,0,0,0,0,0,0,-3.196,-3.1979,-3.2154,-3.2083,-3.2106,-3.219,-3.223,-3.2244,-3.2274,-3.2359,-3.2375,-3.2315,-3.2441,-3.2459,-3.252,-3.2529,-3.2531,-3.2537,-3.2681,-3.2681,-3.2682,-3.2631,0,0,0,0,0,0,-3.1953,-3.1977,-3.1992,-3.2082,-3.211,-3.2202,-3.223,-3.2247,-3.2285,-3.229,-3.2378,-3.2392,-3.2443,-3.251,-3.2526,-3.2538,-3.2542,-3.268,-3.2681,-3.2682,-3.2632,-3.263,-3.2628,0,0,0,0,0,-3.1945,-3.197,-3.1992,-3.2012,-3.213,-3.2203,-3.2218,-3.2276,-3.2285,-3.2302,-3.2357,-3.2389,-3.2525,-3.2515,-3.2534,-3.2548,-3.268,-3.2681,-3.2682,-3.2633,-3.263,-3.2628,0,0,0,0,0,0,-3.1877,-3.1983,-3.2009,-3.2064,-3.2124,-3.2215,-3.2237,-3.2271,-3.2329,-3.2331,-3.24,-3.2419,-3.2475,-3.2517,-3.2504,-3.2593,-3.2606,-3.261,-3.2563,-3.2561,-3.2559,-3.2548,-3.2547,0,0,0,0,0,-3.1869,-3.1919,-3.2009,-3.205,-3.2079,-3.2153,-3.2186,-3.2226,-3.2291,-3.2316,-3.2376,-3.2437,-3.2494,-3.2529,-3.2586,-3.2639,-3.2661,-3.2658,-3.2656,-3.2653,-3.2657,-3.2691,-3.2692,-3.2685,-3.2685,-3.2685,0,0,-3.1853,-3.1917,-3.1944,-3.2038,-3.2089,-3.214,-3.2173,-3.2225,-3.2264,-3.2324,-3.2386,-3.2431,-3.2505,-3.2562,-3.2591,-3.26,-3.2664,-3.2654,-3.2652,-3.2657,-3.2692,-3.2693,-3.2693,-3.2685,-3.2685,-3.2685,0,0,-3.1849,-3.1901,-3.1943,-3.1994,-3.2072,-3.2121,-3.2131,-3.2218,-3.2251,-3.2315,-3.2362,-3.2409,-3.2504,-3.2556,-3.2594,-3.2614,-3.2647,-3.263,-3.2618,-3.2651,-3.2652,-3.2653,-3.2662,-3.2664,-3.2633,-3.2633,-3.2633,0,-3.1818,-3.1897,-3.1959,-3.201,-3.2051,-3.2109,-3.2152,-3.2199,-3.229,-3.2318,-3.2326,-3.245,-3.2503,-3.2576,-3.2581,-3.2609,-3.2624,-3.2621,-3.2647,-3.2648,-3.265,-3.2659,-3.2662,-3.2631,-3.2631,-3.2631,-3.2631,0,-3.1857,-3.1911,-3.1935,-3.2024,-3.2068,-3.2114,-3.2184,-3.2221,-3.2258,-3.2307,-3.2373,-3.2439,-3.2512,-3.2532,-3.2567,-3.261,-3.2613,-3.2633,-3.2648,-3.2647,-3.2658,-3.2661,-3.2627,-3.2628,-3.2629,-3.2629,0,0,-3.1813,-3.1939,-3.1947,-3.1989,-3.2081,-3.2124,-3.2174,-3.2247,-3.2278,-3.234,-3.2385,-3.2466,-3.2486,-3.253,-3.2572,-3.26,-3.2615,-3.2618,-3.2621,-3.2617,-3.267,-3.2655,-3.2658,-3.2637,-3.2638,-3.2639,-3.2664,0,-3.1823,-3.1916,-3.1975,-3.2045,-3.2097,-3.2155,-3.2199,-3.226,-3.2308,-3.236,-3.2413,-3.2471,-3.2492,-3.2519,-3.255,-3.2607,-3.2627,-3.2605,-3.2681,-3.2683,-3.2662,-3.2663,-3.2647,-3.2668,-3.2668,-3.2669,-3.267,0,-3.1847,-3.191,-3.1985,-3.2074,-3.2098,-3.2136,-3.221,-3.2258,-3.233,-3.2363,-3.2413,-3.2457,-3.2513,-3.2523,-3.2603,-3.2588,-3.2622,-3.2655,-3.2658,-3.2668,-3.2677,-3.2675,-3.2675,-3.2679,-3.2676,-3.2676,-3.2675,0,-3.181,-3.1913,-3.1973,-3.2007,-3.2112,-3.2138,-3.2183,-3.2255,-3.2296,-3.2359,-3.2387,-3.2456,-3.2494,-3.2547,-3.2608,-3.2609,-3.2683,-3.2697,-3.2714,-3.2712,-3.2727,-3.2725,-3.2735,-3.2746,-3.2746,-3.2746,-3.2746,0,-3.1816,-3.186,-3.1958,-3.1995,-3.2047,-3.2115,-3.2165,-3.2215,-3.2279,-3.2327,-3.238,-3.2424,-3.2502,-3.2556,-3.2604,-3.2665,-3.2681,-3.271,-3.2723,-3.2707,-3.2703,-3.2731,-3.2731,-3.2747,-3.2747,-3.2747,-3.2747,0,-3.1784,-3.1851,-3.192,-3.2015,-3.204,-3.2074,-3.2155,-3.2194,-3.2246,-3.2306,-3.2324,-3.2405,-3.2472,-3.2539,-3.2628,-3.2661,-3.2721,-3.2737,-3.2697,-3.2704,-3.2718,-3.2716,-3.2746,-3.2754,-3.2758,-3.2758,-3.2758,0,-3.1783,-3.1819,-3.1919,-3.1956,-3.2,-3.2058,-3.2101,-3.217,-3.2213,-3.2299,-3.2328,-3.2399,-3.2459,-3.2563,-3.263,-3.27,-3.2719,-3.2725,-3.273,-3.2713,-3.2722,-3.2719,-3.2725,-3.2723,-3.2722,-3.2722,-3.2722,0,-3.1777,-3.1809,-3.1869,-3.1942,-3.1993,-3.2053,-3.2115,-3.2142,-3.2224,-3.2269,-3.2339,-3.2386,-3.2479,-3.2549,-3.2627,-3.2674,-3.2712,-3.272,-3.2728,-3.2712,-3.2688,-3.2703,-3.2693,-3.2719,-3.2719,-3.2719,-3.2719,-3.272,-3.1762,-3.1798,-3.1875,-3.1941,-3.1996,-3.2054,-3.2096,-3.2154,-3.2214,-3.2295,-3.2333,-3.2403,-3.2478,-3.2586,-3.2633,-3.269,-3.27,-3.271,-3.2713,-3.2715,-3.2713,-3.2678,-3.2704,-3.2704,-3.2704,-3.2704,-3.2705,0,-3.176,-3.1813,-3.1874,-3.1961,-3.2013,-3.2046,-3.2117,-3.2159,-3.2221,-3.2287,-3.2347,-3.2428,-3.2498,-3.2572,-3.2646,-3.2678,-3.2697,-3.2695,-3.2694,-3.2705,-3.2698,-3.2685,-3.2678,-3.2678,-3.2678,-3.2678,-3.2678,-3.2678,-3.1765,-3.1829,-3.1871,-3.1963,-3.2016,-3.2087,-3.2125,-3.218,-3.2234,-3.2323,-3.2381,-3.243,-3.25,-3.258,-3.2646,-3.2666,-3.2692,-3.2685,-3.271,-3.2703,-3.2705,-3.2706,-3.2695,-3.269,-3.269,-3.2712,-3.2712,-3.2713]}]]